This is the latest recevied weather packets stored in our database for station/object KE2HEH. If no packets are shown the sender has not sent any weather packets the latest 10 day(s).
| Time | Temp. | Humidity | Pressure | Rain* | Wind** | Luminosity | Snow |
|---|---|---|---|---|---|---|---|
| 1777854226 | 13.33° C | 48% | 1012.4 hPa | 0 mm | - | 0 W/m² | - |
| 1777853923 | 13.33° C | 50% | 1012.3 hPa | 0 mm | - | 0 W/m² | - |
| 1777853621 | 13.89° C | 42% | 1012.2 hPa | 0 mm | - | 0 W/m² | - |
| 1777853317 | 14.44° C | 32% | 1012 hPa | 0 mm | - | 0 W/m² | - |
| 1777853014 | 14.44° C | 32% | 1012.1 hPa | 0 mm | - | 0 W/m² | - |
| 1777852712 | 15° C | 33% | 1012 hPa | 0 mm | - | 0 W/m² | - |
| 1777852409 | 15° C | 33% | 1011.9 hPa | 0 mm | - | 1 W/m² | - |
| 1777852107 | 15° C | 33% | 1011.8 hPa | 0 mm | - | 3 W/m² | - |
| 1777851805 | 15° C | 33% | 1011.8 hPa | 0 mm | - | 7 W/m² | - |
| 1777851502 | 15° C | 32% | 1011.8 hPa | 0 mm | - | 11 W/m² | - |
| 1777851198 | 15° C | 32% | 1011.7 hPa | 0 mm | - | 14 W/m² | - |
| 1777850894 | 15.56° C | 30% | 1011.5 hPa | 0 mm | - | 17 W/m² | - |
| 1777850592 | 15.56° C | 30% | 1011.7 hPa | 0 mm | - | 22 W/m² | - |
| 1777850290 | 15.56° C | 29% | 1011.5 hPa | 0 mm | - | 25 W/m² | - |
| 1777849987 | 15.56° C | 29% | 1011.4 hPa | 0 mm | - | 29 W/m² | - |
| 1777849682 | 15.56° C | 28% | 1011.4 hPa | 0 mm | - | 32 W/m² | - |
| 1777849380 | 15.56° C | 29% | 1011.5 hPa | 0 mm | - | 36 W/m² | - |
| 1777849077 | 15.56° C | 29% | 1011.4 hPa | 0 mm | - | 38 W/m² | - |
| 1777848772 | 15.56° C | 28% | 1011.4 hPa | 0 mm | - | 42 W/m² | - |
| 1777848469 | 15.56° C | 28% | 1011.3 hPa | 0 mm | - | 45 W/m² | - |
| 1777848167 | 16.11° C | 28% | 1011.3 hPa | 0 mm | - | 48 W/m² | - |
| 1777847864 | 16.11° C | 28% | 1011.4 hPa | 0 mm | - | 50 W/m² | - |
| 1777847562 | 16.11° C | 27% | 1011.3 hPa | 0 mm | - | 54 W/m² | - |
| 1777847258 | 15.56° C | 28% | 1011 hPa | 0 mm | - | 56 W/m² | - |
| 1777846956 | 15.56° C | 29% | 1011.1 hPa | 0 mm | - | 60 W/m² | - |
* Rain latest hour (hover to see other rain measurements)
** Current wind speed in m/s (hover to see current wind gust speed)